Location: Grand Moustoir
(47.8355°N, 3.3120°W)
Time: 21:57:29
(UTC+00:00)

SL-4 R/B - Pass Details

Date: 20 January 2020
Orbit: 428 x 666 km, 51.6° (Epoch: 17 February)

Event Time Altitude Azimuth Distance (km) Brightness Sun altitude
Exits shadow 06:15:09 37° 261° (W) 725 2.1 -16.3°
Maximum altitude 06:16:08 50° 212° (SSW) 581 2.0 -16.1°
Drops below altitude 10° 06:19:28 10° 136° (SE) 1,538 5.2 -15.6°
Sets 06:21:34 0° 131° (SE) 2,390 6.4 -15.3°
